Weather in Dolinskiy

Russia / Chechen Republic     43°24′15″N   45°22′55″E
temp.,
°C
wind,
m/s
gust,
m/s
humid.,
%
clouds,
%
prec.,
mm/h
press.,
hPa
HPBL,
m
9 may, sun
sun900:00+11e11903 0.0 101122
03:00+11ese1189100 0.0 100911
06:00+14se0183100 0.0 100842
09:00+18nw457179 0.0 1008528
12:00+22nw445412 0.0 10071202
15:00+22nw7751100 0.1 10071614
18:00+10wnw121888100 0.9 1014860
21:00+7w91589100 4.1 10201042
10 may, mon
mon1000:00+8w81386100 3.2 10211137
03:00+8wsw61179100 3.3 1021756
06:00+7wsw71184100 0.9 1022888
09:00+10w71066100 1.0 10221397
12:00+14wnw784291 0.1 10202261
15:00+15wnw5642100 0.1 10192056
18:00+13sw4555100 0.0 1020185
21:00+9sw587398 0.1 1021234
11 may, tue
tue1100:00+7sw228030 0.0 102038
03:00+6s228155 0.0 102019
06:00+8se117810 0.0 101998
09:00+13ene575899 0.0 10181354
12:00+16e5649100 0.0 10161688
15:00+17ene764682 0.0 10161694
18:00+14e695818 0.0 1017649
21:00+9e2474100 0.0 1018109
12 may, wed
wed1200:00+8ene11875 0.0 101827
03:00+7e11921 0.0 101718
06:00+9e118513 0.0 101899
09:00+15ene44610 0.0 1018824
12:00+19ene445234 0.0 10171333
15:00+21ene344817 0.0 10171552
18:00+19e35590 0.0 1017229
21:00+13ese36700 0.0 1017101
13 may, thu
thu1300:00+12sse22743 0.0 101715
03:00+11ese127888 0.0 101611
06:00+12ese22760 0.0 101792
09:00+18ene33570 0.0 1016562
12:00+23ene45493 0.0 1015947
15:00+25e55465 0.0 10141227
18:00+21e47625 0.0 1015289
21:00+15ese33800 0.0 101655